CAPE
1 0 0 0 0 0 2 21 6 8 24 0 137 321 137 34 70 126 0 0 194 759 1720 2279 2371 1784 1764 2070 2137 2109 2270 2166 1935 1674 1638 1424 1280 1083 1195 1364 1373 978 778 890 985 969 816 596 316
0 0 0 0 0 0 0 0 2 0 63 96 9 48 154 35 51 0 0 0 278 1135 1690 1956 2298 1819 1869 1986 2138 2276 2255 1966 1778 1755 1715 1416 1190 946 940 1046 997 795 888 983 969 869 731 592 374
0 0 0 0 0 0 0 0 0 0 119 60 69 98 42 96 46 0 0 45 636 1027 1466 1883 2293 1985 1944 1806 2008 2219 2129 1967 1786 1722 1534 1263 1108 966 920 729 705 950 1017 971 955 964 732 459 292
0 0 0 0 0 0 9 0 0 52 90 43 28 76 0 42 111 5 0 120 197 480 1185 2224 2340 2166 2108 1804 1908 2178 2026 1926 1765 1616 1304 1103 933 878 639 579 756 1030 1044 990 929 924 620 450 454
0 0 0 0 0 5 51 2 23 23 133 53 90 53 4 40 0 0 0 2 85 368 1234 1969 2438 2389 2150 1705 1872 2034 2096 2161 1944 1392 1146 1072 969 913 744 731 902 920 927 736 610 846 564 228 276
0 0 0 0 0 68 42 0 0 1 71 109 79 53 58 135 0 0 0 0 13 463 1091 1693 2239 2453 2314 2169 2124 2210 2117 1907 1809 1673 1476 1277 1200 1032 988 976 1193 1107 1223 1024 615 480 386 308 396
0 0 0 0 0 0 34 19 0 106 59 145 101 161 45 389 52 0 0 0 0 416 764 1080 1537 1770 2072 2218 2124 1975 1777 1669 1669 1550 1379 1253 1200 1188 1182 1233 1425 1560 1549 1107 392 226 310 617 908
0 0 0 0 0 0 71 100 8 83 126 114 123 422 17 74 311 64 227 60 32 260 416 646 893 1041 1323 1356 1761 1742 1636 1532 1369 1265 1193 1189 1330 1465 1491 1336 1340 1873 1842 1321 715 705 989 1167 1035
0 0 0 0 0 14 75 74 23 94 100 71 14 92 54 2 348 866 395 209 46 102 274 345 419 511 555 612 900 1561 1085 1237 1371 1251 1425 1093 600 413 667 970 1749 1989 1950 1711 1073 575 190 19 0
0 0 0 0 0 9 71 55 46 85 68 123 109 125 29 700 860 931 613 519 75 12 133 140 274 285 294 523 553 640 500 637 616 493 296 404 59 29 362 624 956 916 77 22 0 0 0 0 0
0 0 0 0 0 0 51 58 71 41 12 85 39 105 35 1052 861 836 754 778 220 73 84 79 87 96 161 290 315 260 177 152 91 74 0 0 0 0 0 0 0 0 0 0 0 0 0 0 0
0 0 0 0 0 0 24 45 52 0 0 13 144 156 109 205 730 788 877 649 268 167 124 63 0 2 8 53 191 82 0 0 0 0 0 0 0 0 0 0 0 0 0 0 0 0 0 0 0
0 0 0 0 0 0 2 42 74 10 0 0 210 208 121 53 62 491 519 447 312 154 50 79 3 0 11 101 77 0 0 0 0 0 0 0 0 0 0 0 0 0 0 0 0 0 0 0 0
0 0 0 0 0 0 9 20 52 18 0 0 142 111 13 47 0 0 0 0 96 68 3 11 19 17 6 85 1 0 0 0 0 0 0 0 0 0 0 0 0 0 0 0 0 0 0 0 0
0 0 0 0 0 0 10 47 45 0 0 0 59 40 0 59 68 27 0 0 0 0 0 0 15 9 40 108 0 0 5 0 0 0 0 0 0 0 0 0 0 0 0 0 0 0 0 0 0
0 0 0 0 0 0 0 0 37 4 0 0 7 4 0 43 208 89 0 0 0 0 0 0 29 10 14 0 0 0 0 0 0 0 0 0 0 0 0 0 0 0 0 0 0 0 0 0 0
0 0 0 0 0 0 0 0 0 0 0 0 0 6 0 108 288 144 2 0 0 0 0 7 2 0 0 0 0 0 0 0 0 0 0 0 0 0 0 0 0 0 0 0 0 0 0 0 0
0 0 0 0 0 0 0 0 0 0 0 11 0 3 102 273 208 150 149 38 317 743 225 48 47 0 0 0 0 0 0 0 0 0 0 0 0 0 0 0 0 0 0 0 0 0 0 0 0
0 0 0 0 0 0 0 0 0 0 0 11 11 7 193 264 208 242 64 313 480 518 490 374 206 12 0 0 0 0 0 0 0 0 0 0 0 0 0 0 0 0 0 0 0 0 0 0 0
0 0 0 0 0 0 0 0 0 0 10 18 16 52 135 208 203 88 61 252 218 276 225 189 219 130 17 0 0 0 0 0 0 0 0 0 0 0 0 0 0 0 0 0 0 0 0 0 0
0 0 0 0 0 0 0 0 65 148 335 140 464 327 296 217 134 8 50 102 162 70 168 68 18 0 0 0 0 0 0 0 0 0 0 0 0 0 0 0 0 0 0 0 0 0 0 0 0
0 0 0 0 0 0 0 0 0 252 257 296 419 295 143 77 11 0 34 59 99 40 0 0 0 0 0 0 0 0 0 0 0 0 0 0 0 0 0 0 0 0 0 0 0 0 0 0 0
0 0 0 0 0 0 0 0 0 59 376 400 155 54 35 3 1 0 0 18 9 0 0 0 0 0 0 0 0 0 0 0 0 0 0 0 0 0 0 0 0 0 0 0 0 0 0 0 0
0 0 0 0 0 0 0 0 0 0 285 298 144 13 16 333 71 8 3 1 1 0 0 0 0 0 0 0 0 0 0 0 0 0 0 0 0 0 0 0 0 0 0 0 0 0 0 0 0
0 0 0 0 0 0 0 0 0 0 0 331 262 0 68 220 34 0 0 1 0 0 0 0 0 0 0 0 0 0 0 0 0 0 0 0 0 0 0 0 0 0 0 0 0 0 0 1 0
0 0 0 0 0 0 0 0 0 0 0 293 48 4 95 1 25 23 1 0 0 0 0 0 0 0 0 0 0 0 0 0 0 0 0 0 0 0 0 0 0 0 0 0 0 0 0 0 0
0 0 0 0 0 0 0 0 2 43 400 344 96 0 0 0 0 0 0 0 0 0 0 0 0 0 0 0 0 0 0 0 0 0 0 0 0 0 0 0 0 0 0 0 0 0 0 0 0
0 0 0 0 0 0 0 0 0 2 132 2 2 0 0 0 0 0 0 0 0 0 0 0 0 0 0 0 0 0 0 0 0 0 0 0 0 0 0 0 0 0 0 0 0 0 0 0 0
0 0 0 0 0 0 0 0 0 0 0 15 45 0 0 0 0 0 0 0 0 0 0 0 0 0 0 0 0 0 0 0 0 0 0 0 0 0 0 0 0 0 0 0 0 0 0 0 0
0 0 0 0 0 0 0 0 0 0 0 10 0 0 0 0 0 0 0 0 0 0 0 0 0 0 0 0 0 0 0 0 0 0 0 0 0 0 0 0 0 0 0 0 0 0 0 0 0
CIN
-108 -0 -0 -0 -0 -0 -68 -203 -61 -268 -188 -0 -106 -60 -109 -131 -103 -106 -0 -0 -475 -267 -85 -33 -10 -55 -81 -62 -54 -51 -26 -15 -20 -24 -24 -36 -49 -67 -57 -38 -30 -62 -79 -65 -57 -61 -81 -106 -136
-0 -0 -0 -0 -0 -0 -0 -0 -178 -0 -265 -195 -72 -136 -140 -197 -338 -0 -0 -0 -418 -192 -108 -69 -22 -62 -71 -66 -46 -23 -12 -16 -28 -26 -28 -45 -64 -90 -86 -72 -69 -88 -73 -69 -81 -98 -118 -131 -154
-0 -0 -0 -0 -0 -0 -0 -0 -0 -0 -257 -241 -192 -137 -210 -232 -434 -0 -0 -547 -323 -182 -135 -79 -26 -52 -59 -66 -35 -9 -5 -15 -27 -28 -38 -63 -78 -96 -95 -114 -111 -83 -82 -94 -100 -105 -128 -155 -172
-0 -0 -0 -0 -0 -0 -118 -0 -0 -262 -223 -310 -367 -144 -0 -310 -335 -272 -0 -477 -440 -296 -161 -51 -27 -32 -30 -43 -23 -4 -11 -16 -27 -42 -71 -95 -119 -123 -150 -147 -119 -93 -97 -101 -108 -107 -133 -151 -151
-0 -0 -0 -0 -0 -120 -361 -99 -295 -262 -232 -335 -276 -257 -241 -253 -0 -0 -0 -470 -475 -316 -149 -61 -16 -10 -14 -41 -28 -18 -14 -8 -26 -80 -112 -121 -127 -124 -142 -138 -119 -111 -112 -130 -142 -116 -146 -192 -183
-0 -0 -0 -0 -0 -210 -312 -0 -0 -31 -276 -294 -376 -259 -228 -293 -0 -0 -0 -0 -333 -328 -197 -91 -31 -14 -20 -24 -28 -19 -28 -46 -52 -65 -82 -99 -97 -114 -115 -112 -97 -109 -90 -100 -140 -153 -170 -179 -160
-0 -0 -0 -0 -0 -0 -261 -416 -0 -212 -212 -205 -438 -226 -313 -255 -284 -0 -0 -0 -0 -328 -267 -205 -140 -97 -53 -39 -47 -59 -78 -77 -71 -78 -95 -104 -102 -104 -104 -99 -81 -67 -62 -102 -172 -185 -165 -119 -84
-0 -0 -0 -0 -0 -0 -340 -290 -381 -278 -257 -412 -353 -235 -268 -253 -237 -294 -294 -496 -552 -385 -342 -296 -253 -219 -171 -157 -105 -99 -101 -95 -106 -115 -121 -113 -98 -89 -83 -92 -95 -48 -43 -52 -102 -101 -68 -49 -53
-0 -0 -0 -0 -0 -111 -409 -286 -378 -358 -297 -324 -473 -343 -323 -168 -249 -186 -268 -366 -494 -484 -430 -403 -354 -338 -320 -297 -221 -123 -166 -152 -134 -143 -110 -145 -218 -251 -192 -141 -52 -35 -23 -6 -40 -135 -239 -346 -0
-0 -0 -0 -0 -0 -165 -357 -346 -335 -321 -281 -253 -335 -325 -411 -389 -253 -237 -202 -227 -407 -248 -489 -538 -508 -460 -417 -307 -302 -270 -285 -271 -269 -281 -323 -282 -287 -164 -237 -191 -122 -121 -394 -142 -0 -0 -0 -0 -0
-0 -0 -0 -0 -0 -11 -321 -337 -356 -327 -306 -266 -301 -296 -449 -342 -294 -224 -210 -226 -388 -527 -562 -602 -610 -587 -502 -356 -370 -397 -435 -443 -473 -462 -0 -0 -0 -0 -0 -0 -0 -0 -0 -0 -0 -0 -0 -0 -0
-0 -0 -0 -0 -0 -0 -296 -341 -407 -13 -0 -292 -217 -295 -426 -499 -368 -283 -225 -284 -390 -482 -551 -610 -65 -341 -718 -583 -495 -522 -0 -0 -0 -0 -0 -0 -0 -0 -0 -0 -0 -0 -0 -0 -0 -0 -0 -0 -0
-0 -0 -0 -0 -0 -0 -65 -337 -345 -402 -0 -0 -326 -350 -347 -457 -311 -365 -374 -348 -372 -467 -533 -566 -183 -0 -762 -637 -649 -0 -0 -0 -0 -0 -0 -0 -0 -0 -0 -0 -0 -0 -0 -0 -0 -0 -0 -0 -0
-0 -0 -0 -0 -0 -0 -328 -399 -334 -217 -0 -0 -418 -396 -226 -440 -0 -0 -0 -0 -459 -478 -506 -562 -638 -695 -546 -627 -203 -0 -0 -0 -0 -0 -0 -0 -0 -0 -0 -0 -0 -0 -0 -0 -0 -0 -0 -0 -0
-0 -0 -0 -0 -0 -0 -136 -276 -414 -0 -0 -0 -413 -401 -12 -463 -430 -447 -0 -0 -0 -0 -0 -0 -567 -695 -674 -604 -0 -0 -834 -0 -0 -0 -0 -0 -0 -0 -0 -0 -0 -0 -0 -0 -0 -0 -0 -0 -0
-0 -0 -0 -0 -0 -0 -0 -0 -265 -211 -0 -0 -433 -237 -0 -532 -553 -638 -0 -0 -0 -0 -0 -0 -490 -611 -610 -0 -0 -0 -0 -0 -0 -0 -0 -0 -0 -0 -0 -0 -0 -0 -0 -0 -0 -0 -0 -0 -0
-0 -0 -0 -0 -0 -0 -0 -0 -0 -0 -0 -0 -0 -357 -0 -575 -658 -663 -260 -0 -0 -0 -0 -271 -259 -0 -0 -0 -0 -0 -0 -0 -0 -0 -0 -0 -0 -0 -0 -0 -0 -0 -0 -0 -0 -0 -0 -0 -0
-0 -0 -0 -0 -0 -0 -0 -0 -0 -0 -0 -292 -0 -287 -497 -593 -593 -599 -700 -904 -743 -592 -613 -663 -669 -0 -0 -0 -0 -0 -0 -0 -0 -0 -0 -0 -0 -0 -0 -0 -0 -0 -0 -0 -0 -0 -0 -0 -0
-0 -0 -0 -0 -0 -0 -0 -0 -0 -0 -0 -421 -442 -426 -499 -588 -581 -657 -904 -692 -597 -599 -561 -544 -505 -294 -0 -0 -0 -0 -0 -0 -0 -0 -0 -0 -0 -0 -0 -0 -0 -0 -0 -0 -0 -0 -0 -0 -0
-0 -0 -0 -0 -0 -0 -0 -0 -0 -96 -472 -435 -500 -542 -550 -613 -605 -755 -883 -688 -697 -640 -624 -601 -504 -450 -562 -0 -0 -0 -0 -0 -0 -0 -0 -0 -0 -0 -0 -0 -0 -0 -0 -0 -0 -0 -0 -0 -0
-0 -0 -0 -0 -0 -0 -0 -0 -288 -445 -509 -565 -576 -599 -587 -622 -691 -1046 -901 -785 -724 -832 -659 -728 -687 -0 -0 -0 -0 -0 -0 -0 -0 -0 -0 -0 -0 -0 -0 -0 -0 -0 -0 -0 -0 -0 -0 -0 -0
-0 -0 -0 -0 -0 -0 -0 -0 -0 -378 -416 -509 -589 -701 -766 -780 -828 -0 -932 -840 -781 -870 -0 -0 -0 -0 -0 -0 -0 -0 -0 -0 -0 -0 -0 -0 -0 -0 -0 -0 -0 -0 -0 -0 -0 -0 -0 -0 -0
-0 -0 -0 -0 -0 -0 -0 -0 -0 -367 -280 -358 -580 -787 -807 -923 -860 -0 -0 -926 -687 -0 -0 -0 -0 -0 -0 -0 -0 -0 -0 -0 -0 -0 -0 -0 -0 -0 -0 -0 -0 -0 -0 -0 -0 -0 -0 -0 -0
-0 -0 -0 -0 -0 -0 -0 -0 -0 -0 -224 -303 -580 -797 -891 -635 -808 -939 -638 -0 -0 -0 -0 -0 -0 -0 -0 -0 -0 -0 -0 -0 -0 -0 -0 -0 -0 -0 -0 -0 -0 -0 -0 -0 -0 -0 -0 -0 -0
-0 -0 -0 -0 -0 -0 -0 -0 -0 -0 -0 -240 -438 -0 -611 -705 -815 -0 -0 -0 -0 -0 -0 -0 -0 -0 -0 -0 -0 -0 -0 -0 -0 -0 -0 -0 -0 -0 -0 -0 -0 -0 -0 -0 -0 -0 -0 -86 -0
-0 -0 -0 -0 -0 -0 -0 -0 -0 -0 -0 -376 -530 -209 -655 -114 -812 -799 -0 -0 -0 -0 -0 -0 -0 -0 -0 -0 -0 -0 -0 -0 -0 -0 -0 -0 -0 -0 -0 -0 -0 -0 -0 -0 -0 -0 -0 -0 -0
-0 -0 -0 -0 -0 -0 -0 -0 -32 -545 -498 -533 -629 -0 -0 -0 -0 -0 -0 -0 -0 -0 -0 -0 -0 -0 -0 -0 -0 -0 -0 -0 -0 -0 -0 -0 -0 -0 -0 -0 -0 -0 -0 -0 -0 -0 -0 -0 -0
-0 -0 -0 -0 -0 -0 -0 -0 -0 -71 -541 -78 -286 -0 -0 -0 -0 -0 -0 -0 -0 -0 -0 -0 -0 -0 -0 -0 -0 -0 -0 -0 -0 -0 -0 -0 -0 -0 -0 -0 -0 -0 -0 -0 -0 -0 -0 -0 -0
-0 -0 -0 -0 -0 -0 -0 -0 -0 -0 -0 -604 -618 -0 -0 -0 -0 -0 -0 -0 -0 -0 -0 -0 -0 -0 -0 -0 -0 -0 -0 -0 -0 -0 -0 -0 -0 -0 -0 -0 -0 -0 -0 -0 -0 -0 -0 -0 -0
-0 -0 -0 -0 -0 -0 -0 -0 -0 -0 -0 -448 -31 -0 -0 -0 -0 -0 -0 -0 -0 -0 -0 -0 -0 -0 -0 -0 -0 -0 -0 -0 -0 -0 -0 -0 -0 -0 -0 -0 -0 -0 -0 -0 -0 -0 -0 -0 -0
Wind_Speed
2 3 2 4 4 5 3 3 3 6 5 4 4 1 7 1 3 5 1 5 13 12 7 10 10 11 12 13 12 12 12 11 12 12 11 10 10 9 8 7 6 6 6 6 5 5 5 4 4
2 1 5 2 6 5 6 3 1 2 2 6 8 4 2 3 3 5 4 4 11 11 7 8 12 12 13 13 12 11 12 11 11 10 10 8 8 7 6 5 4 4 4 4 3 2 2 2 3
2 4 4 5 3 3 5 1 3 3 3 3 5 2 2 2 2 7 7 11 11 8 7 9 13 12 12 12 11 11 11 10 10 9 8 7 6 5 4 3 2 2 2 1 0 1 2 3 3
2 5 5 5 2 2 2 6 6 3 4 9 4 5 4 4 7 7 12 13 9 5 6 12 12 11 11 11 11 10 10 9 9 8 7 6 5 4 3 2 1 1 2 2 3 4 5 5 6
4 3 4 3 5 1 3 5 5 2 5 5 4 5 4 5 7 15 14 12 12 7 5 8 11 11 11 12 12 10 10 8 8 7 7 6 6 5 5 5 4 4 4 5 5 5 6 7 7
4 4 5 1 4 1 2 5 6 2 6 3 7 1 0 6 10 9 12 10 8 11 8 8 13 12 12 12 11 10 9 8 8 7 7 6 6 6 6 5 6 6 7 6 6 7 8 9 10
6 5 4 4 4 4 4 3 3 3 6 1 9 2 4 4 3 9 9 9 8 7 9 8 9 12 14 12 12 11 10 9 8 8 6 6 6 6 6 7 7 8 8 7 7 8 9 11 12
6 5 2 4 4 5 1 1 1 1 3 5 6 6 4 7 8 6 7 6 6 7 6 7 7 7 7 7 14 12 11 10 8 7 7 7 6 7 7 8 8 9 9 8 9 10 11 10 11
4 5 3 5 5 2 4 3 1 4 2 3 0 2 8 16 12 7 6 4 6 7 6 6 7 7 7 6 8 11 13 11 10 8 8 6 3 4 6 6 8 9 10 9 11 14 15 14 14
5 4 8 8 6 4 6 5 8 1 3 5 10 10 11 22 18 15 12 10 5 7 7 7 8 10 8 7 6 5 5 4 4 4 4 2 2 3 5 7 9 10 13 15 14 14 14 11 4
5 6 5 3 6 9 9 5 6 5 8 12 21 14 17 19 17 16 17 16 18 12 8 11 10 7 9 6 4 3 2 3 3 5 2 1 2 4 4 3 5 4 11 5 7 7 5 6 5
2 9 4 6 8 8 11 9 5 10 9 9 11 22 18 19 19 17 17 13 9 11 15 12 8 8 7 5 5 5 3 2 2 2 3 4 3 4 4 4 4 4 4 5 5 3 4 5 5
5 5 4 8 4 10 11 19 11 20 20 3 6 13 15 14 15 13 12 9 9 11 12 12 11 10 9 7 5 6 5 3 2 4 5 5 4 5 4 4 4 4 3 3 4 4 4 5 6
4 5 9 6 7 5 15 6 6 18 12 10 8 10 8 6 6 5 7 9 10 11 10 9 11 11 10 9 8 7 5 5 3 4 5 6 4 5 4 4 4 4 4 4 4 4 4 3 4
3 5 8 5 3 5 9 3 16 11 9 12 13 5 3 6 6 7 9 10 16 10 7 11 12 10 10 9 7 4 5 6 5 5 6 6 5 5 5 4 4 3 3 4 4 4 3 4 4
4 5 3 7 3 4 3 9 14 10 9 13 14 9 9 7 9 7 8 9 15 11 12 11 11 8 6 4 4 4 4 6 5 4 4 5 6 6 5 4 4 3 4 3 3 3 3 4 4
7 2 0 9 2 6 6 12 5 12 16 15 9 9 12 7 5 5 7 8 10 14 10 7 8 8 8 7 6 6 7 7 5 4 4 5 5 5 4 4 3 4 3 3 3 2 2 3 4
2 3 3 4 7 9 14 16 10 15 18 14 8 8 10 14 8 6 5 7 5 9 9 9 9 10 8 7 7 6 7 5 4 4 4 5 3 4 3 3 4 4 4 3 3 2 2 1 3
1 1 3 11 11 4 8 12 10 3 7 9 9 10 12 9 6 4 9 7 8 10 10 6 11 8 7 4 5 4 4 3 2 3 5 3 2 4 4 2 4 4 3 0 1 1 2 3 1
3 4 9 10 8 4 9 9 4 5 6 14 13 12 12 10 8 6 7 10 11 9 9 9 9 8 5 3 4 4 3 2 1 1 4 2 3 3 3 3 3 2 2 3 3 2 3 2 1
3 4 7 7 7 4 5 6 6 5 5 3 4 2 4 15 17 10 8 9 10 10 8 8 7 7 6 6 6 6 4 4 1 2 1 1 3 4 2 3 2 2 1 2 2 2 2 3 3
6 9 10 6 2 2 3 6 6 4 2 2 1 4 5 6 7 9 9 10 8 8 7 7 7 6 6 6 7 6 3 2 1 2 3 4 6 3 3 3 0 0 2 3 3 2 2 1 4
12 6 8 7 5 3 2 3 6 4 5 7 5 3 5 6 8 9 9 11 7 7 7 7 7 7 6 6 6 5 6 4 2 3 6 7 5 6 4 4 6 5 3 4 5 5 5 2 3
7 3 3 4 2 3 4 6 5 7 10 5 3 4 7 8 9 9 9 9 8 6 8 6 7 7 7 7 7 8 8 6 5 4 3 2 2 3 6 7 6 5 5 5 5 5 5 4 4
4 6 4 5 4 6 4 3 10 3 8 15 16 10 7 8 10 12 11 8 6 7 6 5 7 7 7 8 8 7 7 7 6 3 2 2 4 4 6 5 6 4 4 6 5 5 4 4 3
6 9 7 7 4 7 4 6 6 7 12 4 8 9 6 8 7 8 7 6 6 6 6 6 7 7 7 8 7 6 6 4 4 3 4 4 2 2 3 5 4 6 5 4 4 3 3 3 3
2 4 6 6 3 3 4 4 2 6 10 11 12 11 9 7 7 7 6 5 5 5 6 6 7 7 6 6 6 5 5 6 6 5 2 0 1 3 4 4 5 3 4 4 3 2 4 4 4
7 5 3 4 5 4 5 3 6 4 7 7 13 14 11 10 10 10 8 7 7 8 8 7 7 7 5 5 5 5 6 5 4 2 2 0 3 3 5 4 3 1 2 2 2 2 3 4 4
1 1 2 4 5 8 3 8 9 13 16 20 16 13 15 14 13 11 11 10 8 7 8 8 7 8 5 5 4 5 3 4 3 3 2 3 2 5 5 3 4 5 5 5 3 4 5 5 6
6 9 7 6 6 3 5 9 4 13 19 14 14 15 14 15 13 12 10 8 7 7 6 6 6 7 6 5 4 4 3 3 3 4 4 4 5 5 5 4 6 6 7 6 6 6 4 5 6
Wind_Direction
216 258 262 44 49 58 319 326 238 346 4 307 6 132 158 17 152 210 3 147 116 131 146 149 158 154 141 137 135 132 125 119 112 112 108 103 99 101 100 96 93 91 89 87 82 74 66 52 37
242 338 34 75 77 35 298 180 174 312 325 321 349 346 1 111 108 112 101 114 120 138 138 138 155 154 148 142 139 133 126 124 122 118 115 111 107 103 100 91 79 86 89 85 82 68 40 11 357
303 55 74 87 100 164 231 238 211 270 51 31 3 97 20 189 69 144 125 123 113 144 139 151 154 153 150 143 137 130 132 131 131 128 127 126 122 115 107 96 80 93 115 103 356 320 314 313 320
82 9 29 83 257 250 222 221 217 198 176 87 359 41 7 250 148 133 128 123 117 138 137 154 151 147 142 140 138 140 141 142 142 142 145 144 138 137 149 165 182 218 252 269 292 303 308 313 318
42 55 52 22 289 200 249 247 191 9 79 13 91 343 46 8 93 124 130 135 147 148 132 140 144 141 140 148 151 149 150 157 160 162 166 167 171 182 196 206 215 237 258 267 272 276 286 301 313
41 94 58 309 272 222 227 280 323 337 53 326 64 52 77 121 130 146 141 141 154 150 143 146 145 147 152 159 159 162 167 174 178 180 185 185 198 210 223 232 243 253 260 272 274 285 296 309 333
120 88 200 189 262 301 229 164 209 116 211 36 150 112 121 111 181 154 144 137 148 152 148 149 154 163 161 163 169 175 180 187 191 192 197 206 216 229 244 253 262 266 271 278 295 309 318 336 342
109 95 180 209 199 265 295 82 11 128 259 133 212 131 152 169 158 126 112 115 133 143 147 162 160 157 164 172 180 182 189 193 196 199 208 220 232 245 255 260 275 288 295 308 319 329 336 349 11
117 66 244 217 178 185 176 141 256 301 160 246 171 211 169 141 128 118 108 119 161 164 174 166 169 168 169 173 190 190 193 196 196 204 215 222 241 270 287 295 298 304 315 338 10 30 25 21 11
107 134 226 190 162 174 194 162 162 218 225 238 212 236 157 143 158 162 172 185 182 185 199 198 182 179 172 182 192 182 199 194 194 206 215 237 265 292 311 334 326 19 43 51 32 31 28 23 9
170 195 235 207 200 161 176 182 178 177 245 224 198 179 138 146 169 180 183 186 188 189 192 200 196 185 176 185 169 184 198 195 199 207 188 155 36 44 57 51 44 43 43 34 27 27 30 25 21
178 247 244 261 178 138 179 151 225 201 222 236 171 165 151 165 177 183 189 185 185 182 196 196 193 191 191 164 172 180 190 206 195 171 110 98 84 77 68 72 58 48 31 35 36 36 29 28 18
206 266 218 260 195 217 152 191 187 223 232 246 165 155 180 188 183 192 183 178 181 205 195 201 183 189 189 187 181 176 180 179 169 129 115 117 117 92 86 79 66 52 46 58 49 44 33 21 2
214 270 286 273 289 189 171 173 156 240 220 199 204 199 180 171 159 156 173 175 185 200 196 184 194 193 192 189 182 189 155 140 140 115 123 122 121 119 109 92 68 55 48 43 53 47 33 18 356
282 308 328 299 101 155 123 84 229 241 182 187 212 147 136 152 167 201 192 177 177 197 180 187 194 190 192 210 190 156 148 132 126 127 116 114 108 105 105 96 78 77 63 70 47 31 30 23 354
356 39 26 291 334 191 141 256 226 238 189 204 215 155 176 187 187 191 171 184 178 169 179 179 192 185 182 107 92 75 77 102 105 107 97 102 96 88 87 82 67 75 55 57 42 25 6 12 350
5 239 301 314 311 145 218 278 225 199 199 213 192 176 187 181 217 178 164 192 183 168 160 127 104 100 109 105 92 88 98 95 92 92 96 90 85 91 101 101 104 80 72 52 24 358 44 353 332
259 353 321 265 302 358 309 276 279 199 191 201 161 185 180 178 178 184 134 39 50 96 108 116 111 114 103 89 87 85 85 72 86 93 86 80 77 102 113 108 99 80 64 45 16 351 326 234 266
248 200 278 283 274 257 253 254 287 111 138 172 194 185 198 155 144 101 75 63 61 53 80 98 116 105 102 92 101 82 109 114 82 98 95 99 117 92 80 97 85 67 72 14 8 303 305 294 285
279 304 286 283 269 136 299 344 29 161 217 199 192 205 175 140 132 79 73 77 73 79 78 73 91 100 106 101 103 120 140 103 111 140 90 92 105 120 134 113 100 108 96 19 10 13 324 294 339
256 230 275 242 322 298 338 351 352 25 23 73 28 324 176 164 155 124 98 97 95 86 83 91 90 103 107 109 101 88 81 72 85 62 88 43 40 50 111 126 137 165 111 25 343 311 338 315 313
274 197 246 268 288 225 56 275 315 330 16 334 144 132 107 110 89 120 118 111 110 103 89 82 86 90 96 118 124 126 128 137 55 59 34 31 13 17 72 82 186 57 32 343 308 304 278 237 286
239 144 223 242 211 106 335 72 280 355 296 254 244 196 132 126 128 133 118 125 112 96 104 90 90 79 77 75 86 103 88 85 90 66 52 45 33 41 47 37 25 8 338 310 304 300 284 248 261
260 287 76 69 104 52 247 137 267 211 208 236 256 211 148 124 113 115 122 120 111 103 79 97 99 78 76 84 80 94 104 98 70 49 62 14 7 21 25 13 5 339 313 292 283 282 269 291 274
116 73 323 339 352 215 207 98 231 226 226 202 200 188 150 118 125 142 143 124 117 122 129 115 109 97 88 81 78 91 100 98 108 129 132 61 20 14 355 346 326 314 299 293 289 302 298 307 302
193 158 159 222 216 243 260 234 254 270 245 204 124 133 114 101 109 128 126 138 144 147 139 125 111 103 93 93 100 100 121 136 139 100 55 45 26 320 306 311 344 341 349 11 30 30 2 334 314
250 200 207 126 354 54 232 286 288 13 60 111 129 128 144 138 143 149 153 150 161 161 125 127 105 94 103 115 125 128 127 86 78 75 76 99 311 302 327 346 347 351 27 42 18 349 337 336 316
166 178 21 349 154 240 284 262 236 222 171 159 161 165 161 155 160 169 161 169 184 157 129 126 120 132 136 135 121 85 74 89 107 145 173 300 302 305 315 348 319 247 286 294 328 326 290 319 308
294 194 58 140 141 175 217 259 218 200 187 184 186 171 169 171 177 175 171 180 171 141 143 139 140 135 124 98 80 102 151 128 176 205 223 248 269 279 288 305 272 237 250 258 269 274 278 306 310
207 211 158 139 264 244 174 258 216 201 191 176 169 180 180 181 172 176 171 163 146 135 144 137 137 123 140 134 143 180 171 167 218 232 235 242 251 269 270 280 262 244 251 254 259 273 292 301 307